Location: Assche-ter-Heiden
(50.9174°N, 4.1574°E)
Time: 21:56:52
(UTC+00:00)

USA 238 DEB - Pass Details

Date: 20 January 2020
Orbit: 1021 x 1191 km, 63.4° (Epoch: 20 February)

Event Time Altitude Azimuth Distance (km) Brightness Sun altitude
Exits shadow 04:51:10 45° 309° (NW) 1,515 4.1 -25.4°
Maximum altitude 04:53:41 80° 229° (SW) 1,169 3.7 -25.0°
Drops below altitude 10° 05:01:05 10° 144° (SE) 3,086 6.6 -23.8°
Sets 05:03:50 0° 144° (SE) 4,059 7.3 -23.4°
